Location: Betz
(49.1556°N, 2.9558°E)
Time: 12:19:19
(UTC+00:00)

Cosmos 1602 Rocket - Pass Details

Date: 18 September 2019
Orbit: 603 x 634 km, 82.5° (Epoch: 18 October)

Event Time Altitude Azimuth Distance (km) Brightness Sun altitude
Rises 20:50:38 0° 346° (NNW) 2,893 7.8 -27.1°
Reaches altitude 10° 20:52:54 10° 342° (NNW) 1,978 6.9 -27.4°
Enters shadow 20:56:35 50° 298° (WNW) 779 4.3 -27.9°
